This is the latest recevied weather packets stored in our database for station/object K3HW. If no packets are shown the sender has not sent any weather packets the latest 10 day(s).
| Time | Temp. | Humidity | Pressure | Rain* | Wind** | Luminosity | Snow |
|---|---|---|---|---|---|---|---|
| 1777573811 | 15.56° C | 61% | 1011.2 hPa | 0 mm | - | 142 W/m² | - |
| 1777573506 | 16.11° C | 61% | 1011.2 hPa | 0 mm | - | 149 W/m² | - |
| 1777573202 | 16.11° C | 61% | 1010.9 hPa | 0 mm | - | 149 W/m² | - |
| 1777572899 | 16.11° C | 63% | 1010.8 hPa | 0 mm | - | 173 W/m² | - |
| 1777572594 | 15.56° C | 63% | 1011 hPa | 0 mm | - | 103 W/m² | - |
| 1777572289 | 16.11° C | 62% | 1010.9 hPa | 0 mm | - | 130 W/m² | - |
| 1777571985 | 16.11° C | 63% | 1010.8 hPa | 0 mm | - | 197 W/m² | - |
| 1777571685 | 16.11° C | 63% | 1010.9 hPa | 0 mm | - | 199 W/m² | - |
| 1777571383 | 15.56° C | 64% | 1011.1 hPa | 0 mm | - | 159 W/m² | - |
| 1777571079 | 15.56° C | 64% | 1011 hPa | 0 mm | - | 155 W/m² | - |
| 1777570775 | 15.56° C | 63% | 1011 hPa | 0 mm | - | 107 W/m² | - |
| 1777570472 | 15.56° C | 66% | 1011.1 hPa | 0 mm | - | 261 W/m² | - |
| 1777570167 | 15.56° C | 67% | 1011.1 hPa | 0 mm | - | 166 W/m² | - |
| 1777569864 | 15.56° C | 67% | 1011.2 hPa | 0 mm | - | 86 W/m² | - |
| 1777569560 | 15.56° C | 66% | 1010.9 hPa | 0 mm | - | 152 W/m² | - |
| 1777569256 | 15.56° C | 66% | 1011.2 hPa | 0 mm | - | 290 W/m² | - |
| 1777568953 | 15° C | 66% | 1011.1 hPa | 0 mm | - | 300 W/m² | - |
| 1777568649 | 15° C | 68% | 1010.9 hPa | 0 mm | - | 154 W/m² | - |
| 1777568347 | 15° C | 67% | 1011.1 hPa | 0 mm | - | 120 W/m² | - |
| 1777568043 | 15° C | 68% | 1011.1 hPa | 0 mm | - | 118 W/m² | - |
| 1777567740 | 15° C | 68% | 1011.1 hPa | 0 mm | - | 164 W/m² | - |
| 1777567436 | 15° C | 71% | 1011 hPa | 0 mm | - | 434 W/m² | - |
| 1777567135 | 13.89° C | 71% | 1011 hPa | 0 mm | - | 195 W/m² | - |
| 1777566832 | 13.89° C | 72% | 1011.1 hPa | 0 mm | - | 89 W/m² | - |
| 1777566530 | 13.89° C | 72% | 1011.2 hPa | 0 mm | - | 57 W/m² | - |
* Rain latest hour (hover to see other rain measurements)
** Current wind speed in m/s (hover to see current wind gust speed)